• MPC Preparation (Info)

  • MPEC 2012-V27 : 2012 VG6

    The following Minor Planet Electronic Circular may be linked-to from your own Web pages, but must not otherwise be redistributed electronically.

    A form allowing access to any MPEC is at the bottom of this page.


    Read MPEC 2012-V26 Read MPEC 2012-V28


    M.P.E.C. 2012-V27                                Issued 2012 Nov. 6, 18:10 UT
    
         The Minor Planet Electronic Circulars contain information on unusual
             minor planets and routine data on comets.  They are published
       on behalf of Commission 20 of the International Astronomical Union by the
              Minor Planet Center, Smithsonian Astrophysical Observatory,
                              Cambridge, MA 02138, U.S.A.
    
                 Prepared using the Tamkin Foundation Computer Network
    
                                  MPC@CFA.HARVARD.EDU
                URL https://www.minorplanetcenter.net/    ISSN 1523-6714
    
                                       2012 VG6
    
    Observations:
         K12V06G* C2012 11 03.31433201 05 01.311+31 42 35.59         20.8 iLEV027F51
         K12V06G  C2012 11 03.32572201 05 00.450+31 42 57.63         20.8 iLEV027F51
         K12V06G KC2012 11 04.32763 01 03 57.89 +32 15 13.4          20.7 RoEV027291
         K12V06G KC2012 11 04.33134 01 03 57.66 +32 15 19.5          20.3 RoEV027291
         K12V06G KC2012 11 05.13082801 03 11.85 +32 41 18.8          20.9 VrEV027H21
         K12V06G KC2012 11 05.14393901 03 10.88 +32 41 44.8          20.8 VrEV027H21
         K12V06G KC2012 11 05.15523901 03 10.09 +32 42 06.3          20.9 VrEV027H21
         K12V06G KC2012 11 06.36145 01 01 58.40 +33 21 38.4          20.2 RoEV027291
         K12V06G KC2012 11 06.36336 01 01 58.24 +33 21 42.2          20.4 RoEV027291
         K12V06G KC2012 11 06.36527 01 01 58.16 +33 21 45.3          20.3 RoEV027291
    
    Observer details:
    291 LPL/Spacewatch II.  Observer T. H. Bressi.  1.8-m f/2.7 reflector + CCD.
    F51 Pan-STARRS 1, Haleakala.  Observers N. Primak, A. Schultz, S. Watters,
        T. Goggia.  Measurer PS1 Science Consortium.  1.8-m Ritchey-Chretien
        + CCD.
    H21 Astronomical Research Observatory, Westfield.  Observer R. Holmes.
        Measurers L. Buzzi, H. Devore, S. Foglia, T. Vorobjov.  0.61-m f/4.0
        astrograph + CCD.
    
    Orbital elements:
    2012 VG6                                                 Earth MOID = 0.1872 AU
    Epoch 2012 Sept. 30.0 TT = JDT 2456200.5                MPC
    M 338.33449              (2000.0)            P               Q
    n   0.27450586     Peri.   85.19593     +0.14677610     -0.98913868
    a   2.3447775      Node   356.33607     +0.85197096     +0.13044043
    e   0.5222046      Incl.    7.04557     +0.50259552     +0.06774924
    P   3.59           H   22.4           G   0.15           U   8
    Residuals in seconds of arc
    121103 F51  0.0   0.1+    121105 H21  0.1-  0.3-    121106 291  0.3-  0.3+
    121103 F51  0.1+  0.2-    121105 H21  0.4-  0.1-    121106 291  0.3+  0.2-
    121104 291  0.3-  0.7+    121105 H21  0.1-  0.9-
    121104 291  0.2+  0.2-    121106 291  0.2+  0.1+
    
    Ephemeris:
    2012 VG6                 a,e,i = 2.34, 0.52, 7                   q = 1.1203
    Date    TT    R. A. (2000) Decl.     Delta      r     Elong.  Phase     V
    2012 10 07    01 29 27.0 +19 09 21   0.3959  1.3836   163.5    11.8    21.8
    ...
    2012 10 22    01 17 50.7 +25 28 37   0.3100  1.2959   164.0    12.2    21.2
    ...
    2012 10 30    01 09 31.5 +29 26 02   0.2773  1.2540   157.8    17.4    21.0
    ...
    2012 11 05    01 03 19.2 +32 37 06   0.2580  1.2254   152.1    22.3    21.0
    2012 11 06    01 02 20.9 +33 09 49   0.2552  1.2209   151.1    23.1    21.0
    2012 11 07    01 01 24.3 +33 42 44   0.2525  1.2165   150.1    23.9    21.0
    ...
    2012 11 13    00 56 36.2 +37 04 10   0.2384  1.1916   144.4    28.9    20.9
    ...
    2012 11 21    00 53 57.6 +41 40 44   0.2245  1.1636   137.6    34.9    20.9
    ...
    2012 12 06    01 09 37.2 +50 29 22   0.2096  1.1290   129.0    42.7    20.9
    
    A. U. Tomatic                (C) Copyright 2012 MPC           M.P.E.C. 2012-V27
    

    Read MPEC 2012-V26 Read MPEC 2012-V28


    MPEC number:

    Enter an MPEC number in one of the following forms:

    • 1997-B01 (the full form)
    • J97B01 (the packed version of the full form)
    • B01 (the abbreviated form)